Weather History for Cody, WY

Change the Weather History Date:

Wednesday, January 30, 2013

  Actual Average Record
Temperature  
Mean Temperature 16 °F -  
Max Temperature 26 °F 38 °F 61 °F (1934)
Min Temperature 6 °F 15 °F -25 °F (1951)
Degree Days  
Heating Degree Days 49    
Moisture  
Dew Point 14 °F    
Average Humidity 89    
Maximum Humidity 100    
Minimum Humidity 69    
Precipitation  
Precipitation 0.00 in - - ()
Sea Level Pressure  
Sea Level Pressure 29.82 in    
Wind  
Wind Speed 3 mph (NNE)    
Max Wind Speed 10 mph    
Max Gust Speed -    
Visibility 10 miles    
Events      
Averages and records for this station are not official NWS values.
T = Trace of Precipitation, MM = Missing Value Source: NWS Daily Summary

Daily Weather History Graph

Daily Weather History Graph

Search for Another Location

Airport:

Trip Planner

Search our weather history database for the weather conditions in past years. The results will help you decide how hot, cold, wet, or windy it might be!

Date:

Astronomy

Jan. 30, 2013 Rise Set
Actual Time 7:36 AM MST 5:22 PM MST
Civil Twilight 7:05 AM MST 5:54 PM MST
Nautical Twilight 6:30 AM MST 6:29 PM MST
Astronomical Twilight 5:56 AM MST 7:03 PM MST
Moon 9:37 PM MST 8:55 AM MST
Length of Visible Light 10h 48m
Length of Day
9h 46m
Waning Gibbous, 87% of the Moon is Illuminated
Jan 30
Waning Gibbous
Feb 3
Last Quarter
Feb 10
New
Feb 17
First Quarter
Feb 25
Full

Hourly Weather History & Observations

Time (MST) Temp. Windchill Dew Point Humidity Pressure Visibility Wind Dir Wind Speed Gust Speed Precip Events Conditions
12:35 AM 6.8 °F - 3.2 °F 85% 29.87 in 10.0 mi Calm Calm - N/A   Scattered Clouds
1:15 AM 8.6 °F - 6.8 °F 92% 29.85 in 10.0 mi Calm Calm - N/A   Overcast
1:35 AM 8.6 °F - 6.8 °F 92% 29.84 in 10.0 mi Calm Calm - N/A   Overcast
1:55 AM 8.6 °F - 8.6 °F 100% 29.84 in 10.0 mi Calm Calm - N/A   Overcast
2:15 AM 10.4 °F 2.2 °F 6.8 °F 85% 29.84 in 10.0 mi NW 4.6 mph - N/A   Overcast
2:35 AM 10.4 °F - 8.6 °F 92% 29.84 in 10.0 mi Calm Calm - N/A   Overcast
3:15 AM 10.4 °F 2.2 °F 8.6 °F 92% 29.78 in 10.0 mi SSE 4.6 mph - N/A   Overcast
3:35 AM 10.4 °F -0.4 °F 8.6 °F 92% 29.77 in 10.0 mi NNE 6.9 mph - N/A   Overcast
3:55 AM 10.4 °F 0.8 °F 8.6 °F 92% 29.78 in 10.0 mi NNW 5.8 mph - N/A   Overcast
4:15 AM 10.4 °F -2.4 °F 6.8 °F 85% 29.80 in 10.0 mi NNE 9.2 mph - N/A   Overcast
4:35 AM 8.6 °F -3.7 °F 6.8 °F 92% 29.80 in 10.0 mi NNE 8.1 mph - N/A   Overcast
4:55 AM 8.6 °F 0.1 °F 6.8 °F 92% 29.79 in 10.0 mi NNE 4.6 mph - N/A   Overcast
5:15 AM 8.6 °F -1.3 °F 8.6 °F 100% 29.79 in 10.0 mi North 5.8 mph - N/A   Overcast
5:35 AM 8.6 °F -1.3 °F 6.8 °F 92% 29.79 in 10.0 mi North 5.8 mph - N/A   Overcast
5:55 AM 8.6 °F 0.1 °F 6.8 °F 92% 29.78 in 10.0 mi NE 4.6 mph - N/A   Overcast
6:15 AM 8.6 °F - 8.6 °F 100% - 10.0 mi North - - N/A   Overcast
6:35 AM 8.6 °F - 6.8 °F 92% 29.77 in 10.0 mi Calm Calm - N/A   Partly Cloudy
7:15 AM 8.6 °F -2.6 °F 8.6 °F 100% 29.78 in 10.0 mi NNE 6.9 mph - N/A   Mostly Cloudy
7:55 AM 10.4 °F - 8.6 °F 92% 29.81 in 9.0 mi Calm Calm - N/A   Overcast
8:15 AM 10.4 °F - 8.6 °F 92% 29.81 in 10.0 mi Calm Calm - N/A   Overcast
8:35 AM 10.4 °F 0.8 °F 8.6 °F 92% 29.81 in 9.0 mi ENE 5.8 mph - N/A   Overcast
8:55 AM 10.4 °F -0.4 °F 8.6 °F 92% 29.80 in 9.0 mi ENE 6.9 mph - N/A   Overcast
9:15 AM 12.2 °F - 10.4 °F 92% 29.80 in 10.0 mi Calm Calm - N/A   Overcast
9:35 AM 14.0 °F - 12.2 °F 93% 29.80 in 10.0 mi Calm Calm - N/A   Mostly Cloudy
9:55 AM 14.0 °F 8.2 °F 12.2 °F 93% 29.80 in 10.0 mi NW 3.5 mph - N/A   Mostly Cloudy
10:15 AM 15.8 °F 10.2 °F 12.2 °F 86% 29.81 in 10.0 mi WNW 3.5 mph - N/A   Mostly Cloudy
10:35 AM 17.6 °F - 12.2 °F 79% 29.81 in 10.0 mi Calm Calm - N/A   Overcast
11:35 AM 19.4 °F 14.3 °F 14.0 °F 80% 29.82 in 10.0 mi NNE 3.5 mph - N/A   Overcast
11:55 AM 19.4 °F - 14.0 °F 80% 29.81 in 10.0 mi Calm Calm - N/A   Mostly Cloudy
1:15 PM 26.6 °F - 17.6 °F 69% 29.79 in 10.0 mi Calm Calm - N/A   Overcast
1:35 PM 26.6 °F 22.6 °F 17.6 °F 69% 29.79 in 10.0 mi NE 3.5 mph - N/A   Overcast
1:55 PM 26.6 °F 21.2 °F 17.6 °F 69% 29.78 in 10.0 mi NE 4.6 mph - N/A   Overcast
2:15 PM 24.8 °F 17.9 °F 17.6 °F 74% 29.79 in 10.0 mi NNE 5.8 mph - N/A   Mostly Cloudy
2:35 PM 24.8 °F 17.9 °F 17.6 °F 74% 29.78 in 10.0 mi NE 5.8 mph - N/A   Overcast
2:55 PM 23.0 °F 17.0 °F 17.6 °F 80% 29.79 in 10.0 mi NE 4.6 mph - N/A   Overcast
3:15 PM 21.2 °F 10.1 °F 17.6 °F 86% 29.80 in 10.0 mi NNE 10.4 mph - N/A   Overcast
3:35 PM 21.2 °F 11.7 °F 17.6 °F 86% 29.81 in 10.0 mi North 8.1 mph - N/A   Overcast
3:55 PM 21.2 °F 12.6 °F 17.6 °F 86% 29.81 in 10.0 mi NE 6.9 mph - N/A   Overcast
4:15 PM 21.2 °F 11.7 °F 17.6 °F 86% 29.81 in 10.0 mi NE 8.1 mph - N/A   Overcast
4:35 PM 21.2 °F 13.6 °F 19.4 °F 93% 29.81 in 10.0 mi ENE 5.8 mph - N/A   Overcast
4:55 PM 21.2 °F - 19.4 °F 93% 29.82 in 10.0 mi Calm Calm - N/A   Overcast
5:15 PM 21.2 °F 16.4 °F 17.6 °F 86% 29.82 in 10.0 mi North 3.5 mph - N/A   Mostly Cloudy
5:35 PM 19.4 °F - 17.6 °F 93% 29.83 in 9.0 mi Calm Calm - N/A   Overcast
5:55 PM 19.4 °F 14.3 °F 17.6 °F 93% 29.84 in 10.0 mi NNW 3.5 mph - N/A   Overcast
6:15 PM 21.2 °F 14.9 °F 19.4 °F 93% 29.83 in 10.0 mi South 4.6 mph - N/A   Overcast
6:35 PM 21.2 °F - 19.4 °F 93% 29.83 in 10.0 mi Calm Calm - N/A   Overcast
6:55 PM 21.2 °F 11.7 °F 17.6 °F 86% 29.85 in 10.0 mi North 8.1 mph - N/A   Overcast
7:35 PM 17.6 °F 9.3 °F 15.8 °F 93% 29.86 in 8.0 mi NE 5.8 mph - N/A   Mostly Cloudy
8:15 PM 19.4 °F - 17.6 °F 93% 29.87 in 10.0 mi Calm Calm - N/A   Mostly Cloudy
8:35 PM 21.2 °F 16.4 °F 21.2 °F 100% 29.87 in 10.0 mi NE 3.5 mph - N/A   Overcast
8:55 PM 21.2 °F 14.9 °F 19.4 °F 93% 29.88 in 10.0 mi North 4.6 mph - N/A   Overcast
9:15 PM 21.2 °F - 19.4 °F 93% 29.87 in 10.0 mi Calm Calm - N/A   Mostly Cloudy
9:35 PM 21.2 °F 13.6 °F 19.4 °F 93% 29.87 in 10.0 mi NE 5.8 mph - N/A   Partly Cloudy
9:55 PM 21.2 °F 14.9 °F 19.4 °F 93% 29.89 in 10.0 mi ENE 4.6 mph - N/A   Mostly Cloudy
10:15 PM 21.2 °F 13.6 °F 19.4 °F 93% 29.89 in 10.0 mi NE 5.8 mph - N/A   Mostly Cloudy
10:55 PM 21.2 °F 16.4 °F 19.4 °F 93% 29.90 in 10.0 mi ENE 3.5 mph - N/A   Partly Cloudy
11:15 PM 19.4 °F 12.8 °F 17.6 °F 93% 29.90 in 10.0 mi East 4.6 mph - N/A   Partly Cloudy
11:35 PM 19.4 °F - 19.4 °F 100% 29.91 in 10.0 mi Calm Calm - N/A   Mostly Cloudy
11:55 PM 19.4 °F - 17.6 °F 93% 29.92 in 10.0 mi Calm Calm - N/A   Mostly Cloudy